Radiation Dose at Monitoring Post of Fukushima Daini Nuclear Power Station
Date,Time,MP-1(microSv/h),MP-2(microSv/h),MP-3(microSv/h),MP-4(microSv/h),MP-5(microSv/h),MP-6(microSv/h),MP-7(microSv/h),Wind Direction,Wind Velocity(m/s),Rain
2022/01/28,00:00,0.160,0.147,0.229,0.221,0.223,0.128,0.080,north,4.4,No
2022/01/28,00:10,0.159,0.147,0.228,0.221,0.224,0.126,0.080,north-northwest,4.0,No
2022/01/28,00:20,0.160,0.146,0.229,0.221,0.224,0.126,0.081,north,4.1,No
2022/01/28,00:30,0.159,0.147,0.229,0.222,0.224,0.126,0.081,north,3.5,No
2022/01/28,00:40,0.160,0.147,0.229,0.222,0.224,0.127,0.080,north,3.3,No
2022/01/28,00:50,0.159,0.146,0.229,0.221,0.225,0.125,0.081,north,4.1,No
2022/01/28,01:00,0.160,0.146,0.229,0.221,0.224,0.127,0.080,north,3.7,No
2022/01/28,01:10,0.159,0.146,0.230,0.222,0.224,0.127,0.080,north,4.1,No
2022/01/28,01:20,0.160,0.147,0.230,0.222,0.225,0.126,0.080,north,2.7,No
2022/01/28,01:30,0.160,0.147,0.229,0.222,0.225,0.127,0.080,north,3.0,No
2022/01/28,01:40,0.160,0.147,0.230,0.221,0.225,0.127,0.079,north,3.5,No
2022/01/28,01:50,0.159,0.147,0.229,0.221,0.225,0.127,0.080,north-northwest,3.3,No
2022/01/28,02:00,0.160,0.146,0.229,0.222,0.225,0.127,0.081,north-northwest,3.0,No
2022/01/28,02:10,0.161,0.146,0.229,0.222,0.225,0.126,0.081,north,2.5,No
2022/01/28,02:20,0.160,0.147,0.228,0.222,0.225,0.126,0.080,north,3.0,No
2022/01/28,02:30,0.160,0.146,0.229,0.222,0.224,0.127,0.080,north,4.4,No
2022/01/28,02:40,0.160,0.146,0.229,0.221,0.225,0.127,0.081,north,4.4,No
2022/01/28,02:50,0.159,0.146,0.229,0.222,0.224,0.126,0.081,north,4.1,No
2022/01/28,03:00,0.160,0.146,0.230,0.223,0.225,0.126,0.080,north,3.0,No
2022/01/28,03:10,0.160,0.147,0.230,0.222,0.224,0.126,0.081,north,3.2,No
2022/01/28,03:20,0.159,0.147,0.230,0.222,0.224,0.126,0.080,north,3.8,No
2022/01/28,03:30,0.160,0.146,0.229,0.222,0.225,0.127,0.081,north-northwest,4.3,No
2022/01/28,03:40,0.159,0.147,0.229,0.222,0.224,0.127,0.080,north-northwest,4.1,No
2022/01/28,03:50,0.160,0.147,0.229,0.221,0.225,0.126,0.080,north,2.9,No
2022/01/28,04:00,0.161,0.148,0.229,0.223,0.225,0.126,0.081,north-northwest,2.4,No
2022/01/28,04:10,0.160,0.147,0.230,0.222,0.226,0.127,0.081,north-northwest,2.9,No
2022/01/28,04:20,0.161,0.147,0.229,0.222,0.225,0.127,0.081,north-northwest,4.1,No
2022/01/28,04:30,0.161,0.146,0.229,0.222,0.225,0.126,0.080,north-northwest,4.1,No
2022/01/28,04:40,0.160,0.146,0.230,0.222,0.225,0.126,0.081,north-northwest,4.6,No
2022/01/28,04:50,0.160,0.147,0.229,0.222,0.223,0.127,0.081,northwest,4.0,No
2022/01/28,05:00,0.161,0.147,0.229,0.221,0.223,0.127,0.081,northwest,4.4,No
2022/01/28,05:10,0.160,0.147,0.231,0.222,0.226,0.127,0.081,northwest,3.8,No
2022/01/28,05:20,0.159,0.148,0.229,0.221,0.225,0.127,0.081,northwest,3.8,No
2022/01/28,05:30,0.160,0.148,0.229,0.222,0.225,0.126,0.081,northwest,3.3,No
2022/01/28,05:40,0.159,0.147,0.230,0.222,0.225,0.127,0.081,northwest,4.1,No
2022/01/28,05:50,0.160,0.146,0.229,0.221,0.224,0.126,0.081,northwest,3.3,No
2022/01/28,06:00,0.160,0.146,0.230,0.221,0.224,0.126,0.081,north-northwest,1.4,No
2022/01/28,06:10,0.161,0.147,0.229,0.223,0.225,0.126,0.080,northwest,2.5,No
2022/01/28,06:20,0.160,0.147,0.230,0.222,0.224,0.127,0.081,northwest,2.4,No
2022/01/28,06:30,0.159,0.146,0.229,0.223,0.224,0.126,0.081,west-northwest,2.4,No
2022/01/28,06:40,0.160,0.147,0.230,0.222,0.223,0.127,0.081,northwest,1.8,No
2022/01/28,06:50,0.161,0.147,0.231,0.222,0.224,0.127,0.081,west-northwest,1.0,No
2022/01/28,07:00,0.160,0.147,0.230,0.221,0.225,0.127,0.081,-,CALM,No
2022/01/28,07:10,0.159,0.146,0.230,0.222,0.224,0.128,0.081,-,CALM,No
2022/01/28,07:20,0.160,0.147,0.229,0.221,0.225,0.127,0.080,southwest,1.0,No
2022/01/28,07:30,0.161,0.147,0.231,0.221,0.224,0.128,0.079,west-northwest,1.4,No
2022/01/28,07:40,0.159,0.146,0.229,0.222,0.224,0.126,0.080,northwest,1.1,No
2022/01/28,07:50,0.160,0.147,0.229,0.221,0.224,0.127,0.080,northeast,0.5,No
2022/01/28,08:00,0.159,0.147,0.229,0.221,0.224,0.127,0.081,-,CALM,No
2022/01/28,08:10,0.160,0.147,0.231,0.220,0.224,0.126,0.080,-,CALM,No
2022/01/28,08:20,0.160,0.146,0.229,0.221,0.224,0.126,0.080,south,0.5,No
2022/01/28,08:30,0.160,0.147,0.229,0.222,0.224,0.127,0.080,-,CALM,No
2022/01/28,08:40,0.160,0.146,0.230,0.221,0.224,0.126,0.081,east,0.7,No
2022/01/28,08:50,0.160,0.148,0.229,0.221,0.224,0.127,0.080,southeast,1.0,No
2022/01/28,09:00,0.159,0.146,0.230,0.222,0.225,0.126,0.080,southeast,1.0,No
2022/01/28,09:10,0.160,0.148,0.230,0.221,0.224,0.126,0.081,east-southeast,2.4,No
2022/01/28,09:20,0.160,0.146,0.229,0.222,0.224,0.127,0.080,east-southeast,1.8,No
2022/01/28,09:30,0.159,0.148,0.229,0.221,0.224,0.126,0.080,east,0.8,No
2022/01/28,09:40,0.160,0.146,0.229,0.222,0.225,0.126,0.080,east-southeast,1.1,No
2022/01/28,09:50,0.159,0.145,0.228,0.221,0.224,0.126,0.080,east,1.1,No
2022/01/28,10:00,0.160,0.146,0.229,0.221,0.224,0.127,0.080,east-southeast,1.1,No
2022/01/28,10:10,0.160,0.146,0.230,0.221,0.223,0.126,0.081,east-southeast,1.6,No
2022/01/28,10:20,0.159,0.146,0.228,0.221,0.223,0.127,0.081,east,1.9,No
2022/01/28,10:30,0.159,0.145,0.229,0.220,0.223,0.126,0.080,southeast,1.9,No
2022/01/28,10:40,0.159,0.146,0.230,0.221,0.224,0.127,0.081,southeast,1.6,No
2022/01/28,10:50,0.158,0.147,0.227,0.222,0.222,0.127,0.080,-,CALM,No
2022/01/28,11:00,0.159,0.146,0.227,0.221,0.224,0.126,0.080,west,3.0,No
2022/01/28,11:10,0.158,0.145,0.228,0.221,0.223,0.126,0.080,west,3.5,No
2022/01/28,11:20,0.159,0.145,0.227,0.220,0.224,0.126,0.080,west-northwest,5.0,No
2022/01/28,11:30,0.158,0.145,0.228,0.220,0.223,0.125,0.079,northwest,4.1,No
2022/01/28,11:40,0.159,0.145,0.229,0.221,0.225,0.126,0.081,northwest,6.3,No
2022/01/28,11:50,0.159,0.145,0.227,0.220,0.222,0.126,0.080,west,5.5,No
2022/01/28,12:00,0.159,0.146,0.228,0.220,0.224,0.127,0.080,west,8.1,No
2022/01/28,12:10,0.159,0.147,0.229,0.221,0.224,0.127,0.080,west-northwest,6.1,No
2022/01/28,12:20,0.158,0.145,0.227,0.222,0.223,0.127,0.080,west-northwest,7.4,No
2022/01/28,12:30,0.158,0.146,0.229,0.221,0.224,0.127,0.080,west-northwest,8.4,No
2022/01/28,12:40,0.158,0.146,0.229,0.221,0.225,0.127,0.080,west-northwest,11.9,No
2022/01/28,12:50,0.159,0.146,0.228,0.221,0.225,0.126,0.080,west-northwest,9.7,No
2022/01/28,13:00,0.158,0.146,0.228,0.222,0.223,0.126,0.080,west,9.3,No
2022/01/28,13:10,0.159,0.147,0.229,0.221,0.225,0.127,0.080,west,10.9,No
2022/01/28,13:20,0.159,0.145,0.229,0.222,0.224,0.127,0.080,west-northwest,10.9,No
2022/01/28,13:30,0.159,0.147,0.229,0.221,0.225,0.126,0.080,west,12.0,No
2022/01/28,13:40,0.159,0.146,0.229,0.220,0.225,0.127,0.080,west,11.4,No
2022/01/28,13:50,0.159,0.147,0.229,0.221,0.224,0.127,0.080,west-northwest,10.3,No
2022/01/28,14:00,0.159,0.145,0.229,0.222,0.225,0.127,0.080,west-northwest,8.1,No
2022/01/28,14:10,0.160,0.146,0.228,0.220,0.225,0.126,0.080,west-northwest,8.4,No
2022/01/28,14:20,0.159,0.146,0.229,0.222,0.224,0.125,0.079,west-northwest,8.7,No
2022/01/28,14:30,0.160,0.146,0.230,0.222,0.226,0.126,0.081,west-northwest,10.5,No
2022/01/28,14:40,0.160,0.146,0.230,0.222,0.224,0.126,0.080,northwest,7.5,No
2022/01/28,14:50,0.160,0.147,0.230,0.222,0.224,0.125,0.080,west-northwest,5.7,No
2022/01/28,15:00,0.160,0.147,0.230,0.222,0.224,0.126,0.080,west-northwest,8.4,No
2022/01/28,15:10,0.160,0.147,0.230,0.221,0.224,0.127,0.079,west-northwest,8.0,No
2022/01/28,15:20,0.160,0.146,0.230,0.222,0.223,0.126,0.080,west-northwest,6.4,Yes
2022/01/28,15:30,0.159,0.146,0.230,0.222,0.225,0.126,0.079,west-northwest,4.4,No
2022/01/28,15:40,0.160,0.146,0.231,0.221,0.224,0.127,0.080,west,8.4,No
2022/01/28,15:50,0.159,0.145,0.229,0.222,0.226,0.127,0.080,west,7.1,No
2022/01/28,16:00,0.161,0.146,0.229,0.222,0.225,0.126,0.080,west,8.9,No
2022/01/28,16:10,0.160,0.147,0.230,0.222,0.224,0.127,0.080,west,9.4,No
2022/01/28,16:20,0.160,0.146,0.230,0.223,0.225,0.126,0.080,west-northwest,8.2,No
2022/01/28,16:30,0.160,0.146,0.230,0.222,0.224,0.127,0.080,west,11.9,No
2022/01/28,16:40,0.160,0.147,0.229,0.222,0.224,0.127,0.081,west,11.2,No
2022/01/28,16:50,0.160,0.146,0.229,0.222,0.224,0.126,0.080,west-northwest,9.3,No
2022/01/28,17:00,0.159,0.146,0.232,0.222,0.224,0.127,0.080,west,11.7,No
2022/01/28,17:10,0.160,0.147,0.230,0.222,0.223,0.126,0.081,west-northwest,10.0,No
2022/01/28,17:20,0.160,0.147,0.231,0.221,0.225,0.127,0.081,west,13.5,No
2022/01/28,17:30,0.160,0.146,0.231,0.222,0.225,0.127,0.080,west-northwest,11.9,No
2022/01/28,17:40,0.161,0.146,0.229,0.222,0.224,0.128,0.080,west,12.5,No
2022/01/28,17:50,0.160,0.146,0.229,0.222,0.225,0.127,0.081,west-northwest,11.0,No
2022/01/28,18:00,0.160,0.147,0.230,0.222,0.224,0.127,0.081,west,10.3,No
2022/01/28,18:10,0.160,0.146,0.230,0.222,0.225,0.126,0.080,west,11.4,No
2022/01/28,18:20,0.161,0.147,0.230,0.223,0.225,0.127,0.080,west-northwest,10.0,No
2022/01/28,18:30,0.160,0.147,0.231,0.223,0.224,0.126,0.081,west,10.2,No
2022/01/28,18:40,0.160,0.147,0.231,0.223,0.225,0.127,0.081,west-northwest,9.4,No
2022/01/28,18:50,0.160,0.147,0.230,0.222,0.224,0.127,0.080,west-northwest,7.4,No
2022/01/28,19:00,0.160,0.147,0.230,0.223,0.225,0.127,0.080,west-northwest,7.7,No
2022/01/28,19:10,0.161,0.146,0.231,0.222,0.224,0.126,0.081,west-northwest,5.9,No
2022/01/28,19:20,0.161,0.147,0.230,0.223,0.225,0.127,0.080,west-northwest,6.5,No
2022/01/28,19:30,0.160,0.147,0.230,0.222,0.224,0.127,0.081,west-northwest,5.1,No
2022/01/28,19:40,0.160,0.148,0.231,0.223,0.224,0.126,0.080,northwest,5.1,No
2022/01/28,19:50,0.160,0.146,0.230,0.223,0.224,0.127,0.081,northwest,3.3,No
2022/01/28,20:00,0.160,0.147,0.228,0.223,0.224,0.126,0.080,northwest,3.2,No
2022/01/28,20:10,0.160,0.146,0.228,0.222,0.225,0.126,0.080,northwest,3.0,No
2022/01/28,20:20,0.160,0.146,0.229,0.223,0.223,0.127,0.080,northwest,1.8,No
2022/01/28,20:30,0.160,0.146,0.229,0.221,0.223,0.126,0.079,north-northwest,1.3,No
2022/01/28,20:40,0.159,0.146,0.230,0.221,0.224,0.126,0.080,-,CALM,No
2022/01/28,20:50,0.160,0.146,0.230,0.222,0.224,0.126,0.080,northwest,1.0,No
2022/01/28,21:00,0.160,0.147,0.231,0.223,0.224,0.126,0.080,west-northwest,1.9,No
2022/01/28,21:10,0.160,0.146,0.230,0.223,0.223,0.127,0.080,northwest,2.4,No
2022/01/28,21:20,0.160,0.147,0.230,0.223,0.225,0.127,0.080,northwest,2.4,No
2022/01/28,21:30,0.159,0.147,0.230,0.222,0.224,0.126,0.080,northwest,1.6,No
2022/01/28,21:40,0.159,0.146,0.230,0.223,0.224,0.125,0.081,east-northeast,0.7,No
2022/01/28,21:50,0.160,0.147,0.228,0.221,0.224,0.126,0.080,west-southwest,1.1,No
2022/01/28,22:00,0.160,0.146,0.231,0.222,0.224,0.126,0.080,west-northwest,2.4,No
2022/01/28,22:10,0.159,0.146,0.229,0.222,0.225,0.126,0.080,west-northwest,3.0,No
2022/01/28,22:20,0.160,0.147,0.230,0.223,0.224,0.126,0.081,west-northwest,4.1,No
2022/01/28,22:30,0.159,0.146,0.231,0.222,0.224,0.126,0.080,west-northwest,4.8,No
2022/01/28,22:40,0.159,0.146,0.230,0.222,0.224,0.126,0.080,west-northwest,4.9,No
2022/01/28,22:50,0.160,0.146,0.229,0.222,0.224,0.126,0.081,west-northwest,4.1,No
2022/01/28,23:00,0.160,0.146,0.230,0.222,0.224,0.127,0.080,west-northwest,3.8,No
2022/01/28,23:10,0.159,0.147,0.230,0.222,0.225,0.127,0.081,west-northwest,4.8,No
2022/01/28,23:20,0.160,0.147,0.229,0.222,0.225,0.126,0.079,west-northwest,5.9,No
2022/01/28,23:30,0.160,0.146,0.228,0.222,0.223,0.126,0.081,west-northwest,6.5,No
2022/01/28,23:40,0.160,0.147,0.230,0.222,0.224,0.126,0.080,northwest,7.5,No
2022/01/28,23:50,0.160,0.147,0.229,0.221,0.224,0.127,0.080,northwest,7.7,No
